sat.trackr.live / text

‹ back to catalog

STARLINK-33648

NORAD 63371 · 2025-063J

PAYLOAD ACTIVE UNKNOWN

§ Identity

Operator
Country
US
Launch date
2025-03-26
Launch site
AFWTR
Launch vehicle
Mass (kg)
RCS (m²)

Purposes: comms

External: N2YO · Heavens-Above · Gunter

§ Orbital elements

Epoch: 2026-09-20T22:01:05.199456Z

Period
94.01 min
Inclination
53.1558°
Eccentricity
0.0001502
Mean motion
15.31707282 rev/d
Perigee alt
469.7 km
Apogee alt
471.7 km
Semi-major
6,848.9 km
B*
4.1962e-4
RAAN
224.6636°
Arg perigee
94.8829°
Mean anomaly
265.2344°
Rev number
8,466

§ Raw data

STARLINK-336481 63371U 25063J   26263.91742129  .00012681  00000+0  41962-3 0  99922 63371  53.1558 224.6636 0001502  94.8829 265.2344 15.31707282 84662

JSON: /api/v1/satellites/63371 · /tle

For live sub-satellite position, see the globe view (requires WebGL).

§ Visibility from observer

Set your observer location to see the next 7 days of passes ≥ 10°. The values pass through the URL so the page stays shareable.

No JS? Fill the form by hand. The geolocation button needs JavaScript.